Location: Unspecified
(0.0000°N, 0.0000°E)
Time: 18:54:56
(UTC+00:00)

A-11 Canister half - Pass Details

Date: 20 November 2019
Orbit: 1515 x 1685 km, 47.2° (Epoch: 05 December)

Event Time Altitude Azimuth Distance (km) Brightness Sun altitude
Exits shadow 02:45:38 61° 152° (SSE) 1,746 9.2 -41.7°
Drops below altitude 10° 02:53:02 10° 143° (SE) 3,720 11.6 -40.1°
Sets 02:56:02 0° 142° (SE) 4,688 12.3 -39.4°
